Location: Hiram
(41.3130°N, 81.1440°W)
Time: 22:28:16
(UTC-04:00)

Daily predictions for brighter satellites

Satellite Brightness Start Highest point End
(mag) Time Altitude Azimuth Time Altitude Azimuth Time Altitude Azimuth
ATLAS 5 CENTAUR R/B 2.5 20:46:28 10° NNW 20:52:29 76° NE 20:59:01 10° SE
H-2A R/B 3.3 20:50:29 10° S 20:54:19 61° W 20:58:06 10° NNW
Cosmos 1992 Rocket 4.2 20:50:33 10° SSW 20:55:48 81° WNW 21:01:04 10° NNE
COSMOS 2428 3.7 20:51:56 10° SSE 20:56:31 26° ESE 21:01:07 10° NE
Cosmos 1908 Rocket 4.4 20:53:16 10° NNE 20:57:10 31° ENE 21:01:03 10° SE
Resurs 01 Rocket 2.0 20:55:30 10° S 20:59:55 70° WSW 21:04:23 10° NNW
USA 267 3.3 20:54:52 10° NE 21:01:27 89° SE 21:08:00 10° SW
BREEZE-M DEB (TANK) 4.0 20:58:42 10° WNW 21:01:42 49° N 21:09:16 10° ENE
Helios 1A 3.2 20:59:46 10° SSE 21:03:54 54° ENE 21:08:03 10° N
Cosmos 1939 Rocket 3.6 21:01:21 10° SE 21:05:01 35° ENE 21:08:38 10° N
Atlas Centaur 2 3.4 21:01:32 10° WSW 21:06:52 32° S 21:12:51 12° ESE
CZ-4B DEB 3.3 21:06:09 10° SE 21:08:57 36° ENE 21:11:47 10° N
Cosmos 2322 3.7 21:03:57 10° S 21:09:35 64° ESE 21:15:14 10° NNE
Abrixas rocket 4.2 21:08:49 10° NW 21:11:33 23° N 21:14:17 10° ENE
Cosmos 1733 Rocket 3.3 21:07:32 10° NNW 21:12:00 74° W 21:16:25 10° S
Okean 1-7 4.2 21:08:48 10° SE 21:12:18 24° E 21:15:49 10° NE
SL-16 R/B 3.7 21:07:34 10° SW 21:12:56 43° WNW 21:18:20 10° NNE
Sich 1 Rocket 3.9 21:08:39 10° N 21:13:01 47° E 21:17:23 10° SSE
YAOGAN 6 3.9 21:11:35 13° ESE 21:14:00 24° ENE 21:16:56 10° NNE
Cosmos 1862 Rocket 4.2 21:19:30 10° SSW 21:23:56 62° W 21:28:24 10° N
Cosmos 968 Rocket 3.5 21:20:01 10° NNW 21:25:15 88° ENE 21:30:29 10° SSE
CZ-4C R/B 4.0 21:19:53 10° NNW 21:25:50 29° NE 21:31:55 11° E
Cosmos 1844 Rocket 3.4 21:20:47 10° N 21:25:58 38° ENE 21:29:47 17° ESE
Meteor 2-10 Rocket 3.7 21:20:36 10° S 21:26:24 79° E 21:32:09 10° NNE
Cosmos 2237 Rocket 3.7 21:26:55 14° ESE 21:27:37 15° E 21:30:40 10° ENE
Meteor 1-14 Rocket 4.4 21:22:35 10° N 21:28:12 56° ENE 21:33:26 12° SSE
Cosmos 2333 4.5 21:26:35 10° S 21:32:00 45° ESE 21:37:28 10° NE
Cosmos 2278 Rocket 3.8 21:28:10 10° N 21:32:16 20° NE 21:35:33 13° E
Okean 2 Rocket 3.9 21:28:52 10° N 21:32:58 33° ENE 21:35:19 20° SE
Cosmos 2333 Rocket 3.2 21:32:00 14° SSE 21:35:28 25° ESE 21:40:04 10° NE
Lacrosse 4 Rocket 4.3 21:33:47 10° WNW 21:35:44 13° WSW 21:37:41 10° SW
USA 234 3.7 21:30:18 14° ESE 21:35:46 54° NNE 21:42:07 10° NW
Helios 1B rocket 2.7 21:33:51 10° N 21:37:57 72° WNW 21:42:02 10° SSW
Cosmos 1703 Rocket 3.5 21:40:33 10° S 21:44:59 83° E 21:49:24 10° N
Cosmos 1633 4.4 21:45:52 10° NNE 21:48:15 16° ENE 21:48:20 16° ENE
Envisat 3.4 21:43:34 10° S 21:48:35 63° W 21:53:39 10° NNW
Cosmos 2219 Rocket 2.6 21:43:36 10° S 21:48:45 40° ESE 21:53:58 10° NE
Meteor 1-29 3.7 21:47:04 10° N 21:50:27 55° WNW 21:53:49 10° SSW
USA 186 4.4 21:50:29 10° SW 21:52:27 17° W 21:54:31 10° NW
SPOT 5 3.4 21:57:52 28° ESE 21:59:34 39° ENE 22:03:48 10° N
SeaSat 1 3.8 21:58:47 19° E 22:00:51 26° NE 22:04:53 10° N
NOSS 0 Rocket 4.3 22:00:22 20° SSE 22:04:00 39° ESE 22:09:38 10° NE
ERS-1 Rocket 2.9 22:01:58 24° SSE 22:05:05 87° ENE 22:10:09 10° NNW
Cosmos 2151 Rocket 4.2 22:03:42 10° N 22:07:51 37° ENE 22:08:40 34° ESE
H-2A R/B 3.0 22:06:42 26° E 22:08:00 29° ENE 22:12:12 10° N
Cosmos 2263 Rocket 4.4 22:04:52 10° NW 22:08:52 21° W 22:12:53 10° SSW
Milstar 3 4.3 22:04:00 10° WSW 22:09:07 18° SSW 22:11:48 15° S
Cosmos 2266 Rocket 4.3 22:04:18 10° NNW 22:10:35 69° W 22:16:21 13° S
Cosmos 1570 Rocket 4.0 22:11:35 21° S 22:14:59 60° ESE 22:20:12 10° NNE
NOSS 3-1 (C) 3.2 22:12:56 10° SSW 22:18:39 79° ESE 22:25:03 10° NE
Cosmos 2221 Rocket 4.2 22:14:22 10° SSW 22:18:41 56° W 22:23:04 10° N
MetOp-B 4.0 22:17:12 33° SSE 22:19:42 81° ENE 22:25:04 10° NNW
Cosmos 1782 2.7 22:18:24 41° S 22:19:45 84° E 22:23:47 10° N
ASTEX 1 4.4 22:21:11 28° E 22:21:41 29° ENE 22:25:56 10° NNE
YAOGAN 11 4.0 22:20:57 46° SSE 22:22:13 81° ENE 22:26:34 10° N
H-2A R/B 3.4 22:27:25 25° ENE 22:27:27 25° ENE 22:31:01 10° NNE
Cosmos 2208 Rocket 3.9 22:25:08 25° S 22:28:16 72° ESE 22:33:34 10° NNE
Cosmos 1346 Rocket 3.3 22:31:35 43° ENE 22:31:35 43° ENE 22:34:46 10° NNE
Cosmos 2360 Rocket 4.4 22:26:33 10° WSW 22:31:14 26° NW 22:35:58 10° N
Terra 3.0 22:32:31 27° ENE 22:32:48 27° ENE 22:36:47 10° N
Meteor 1-27 Rocket 3.8 22:33:10 45° SE 22:34:26 54° E 22:39:51 10° NNE
NOSS 3-1 (A) 3.2 22:30:45 10° SSW 22:36:28 78° ESE 22:42:54 10° NE
ATLAS 5 CENTAUR R/B 4.4 22:32:22 10° WNW 22:36:47 20° WSW 22:41:22 10° SSW
ATLAS 2AS CENTAUR R/B 4.2 22:39:31 22° E 22:39:31 22° E 22:43:58 10° ENE
COSMOS 2428 3.8 22:35:03 10° SW 22:40:28 45° WNW 22:45:58 10° NNE
Cosmos 1244 Rocket 4.5 22:34:14 10° N 22:40:32 86° W 22:43:18 36° S
ARGOS 3.1 22:41:15 44° S 22:43:00 82° WSW 22:48:25 10° NNW
Cosmos 1898 Rocket 3.9 22:38:59 10° N 22:43:58 45° ENE 22:44:33 43° E
Cosmos 1980 3.5 22:42:14 38° S 22:44:25 73° ESE 22:50:04 10° NNE
SL-08 R/B 4.4 22:39:45 10° N 22:45:52 67° E 22:47:23 50° SE
Cosmos 1300 Rocket 3.9 22:43:44 10° N 22:47:37 50° ENE 22:47:37 50° ENE
Cosmos 1553 Rocket 3.9 22:46:05 44° SSE 22:48:06 71° E 22:54:17 10° NNE
Cosmos 1844 3.9 22:42:33 10° NNW 22:48:07 63° WSW 22:49:48 43° S
Abrixas rocket 3.4 22:45:33 10° NW 22:47:59 41° NNW 22:47:59 41° NNW
Cosmos 1606 3.4 22:48:19 44° WSW 22:48:55 49° W 22:52:36 10° N
SL-16 R/B 3.4 22:53:21 27° ENE 22:53:21 27° ENE 22:56:41 10° NE
SWAS 4.4 22:49:12 10° NNW 22:53:29 83° W 22:53:29 83° W
Cosmos 2084 3.6 22:51:21 10° NW 22:54:45 59° W 22:54:45 59° W
Atlas Centaur 2 3.8 22:49:55 10° WSW 22:55:28 28° SSW 22:55:28 28° SSW
SPOT 1/Viking Rocket 3.5 22:55:00 60° S 22:55:58 83° WSW 23:01:13 10° NNW
ATLAS 3B R/B 4.2 22:54:26 10° NNW 22:59:57 25° NE 23:03:13 17° ENE
Meteor 1-11 Rocket 3.6 22:57:36 10° N 23:03:10 89° W 23:04:01 66° S
MOS 1-B Rocket 4.2 23:02:57 39° SSW 23:04:50 57° WSW 23:10:21 10° NNW
SL-08 RB Rocket 4.1 23:05:09 54° WSW 23:05:32 56° W 23:10:01 10° NNW
ATLAS CENTAUR R/B 3.6 23:12:45 16° NE 23:12:45 16° NE 23:13:38 10° NE
Cosmos 1844 Rocket 4.0 23:04:54 10° NW 23:09:42 30° WSW 23:11:29 25° SW
Cosmos 2237 Rocket 2.3 23:08:37 37° SW 23:10:56 75° WNW 23:16:40 10° NNE
Cosmos 1378 Rocket 4.5 23:13:23 40° NE 23:13:23 40° NE 23:16:24 10° NNE
Cosmos 468 Rocket 3.9 23:13:09 81° E 23:13:09 81° E 23:18:24 10° NNE
Meteor 2-11 Rocket 4.3 23:12:02 62° S 23:13:08 86° E 23:19:15 10° N
CZ-4C R/B 2.9 23:07:54 10° NW 23:15:07 80° WSW 23:17:07 54° SSE
Cosmos 1386 Rocket 4.4 23:09:58 10° N 23:16:23 75° E 23:17:08 67° SE
Cosmos 2278 Rocket 2.2 23:11:15 10° NNW 23:16:53 67° WSW 23:17:25 63° SW
USA 234 3.6 23:17:39 43° SSW 23:18:48 48° SW 23:25:06 10° WNW
Cosmos 2333 Rocket 3.1 23:13:52 10° SW 23:19:24 48° WNW 23:25:00 10° NNE
S3M 4.1 23:18:41 45° SSW 23:20:36 69° W 23:26:50 10° N
Cosmos 1633 4.5 23:20:04 10° NNW 23:22:39 27° WNW 23:22:39 27° WNW
IGS 5A 4.3 23:25:06 46° N 23:25:06 46° N 23:28:06 10° N
Timation 1 Rocket 4.2 23:19:14 10° NNW 23:25:13 79° WSW 23:25:37 75° SSW
Cosmos 1536 4.0 23:23:16 10° N 23:26:02 42° NNW 23:26:02 42° NNW
Cosmos 1709 Rocket 4.2 23:21:09 10° N 23:27:26 56° E 23:27:37 56° E
Cosmos 2219 Rocket 3.9 23:27:54 10° WSW 23:32:47 30° NW 23:37:43 10° N
CARTOSAT-1 4.4 23:36:40 47° NW 23:36:40 47° NW 23:39:55 10° NNW
deb Chang Zheng 4 4.4 23:31:34 10° N 23:34:48 48° N 23:34:48 48° N
SeaSat 1 3.2 23:38:34 45° W 23:38:34 45° W 23:42:52 10° NW
SL-19 R/B 4.4 23:38:58 10° N 23:44:55 71° WNW 23:45:24 67° WSW
Meteor 1-5 Rocket 4.3 23:41:17 10° NNW 23:46:56 70° W 23:46:56 70° W
H-2A R/B 3.2 23:47:20 31° W 23:47:20 31° W 23:51:43 10° NW
